#timestamp,LO_Frequency,Hit,StdDev 
1693476015.8,286046997.4,N
1693476035.6,286046997.8,N
1693476055.5,286046997.1,N
1693476075.3,286046996.8,Y
1693476095.1,286047001.2,P
1693476115.9,286047001.1,N
1693476135.7,286046998.7,N
1693476155.6,286046998.1,N
1693476175.4,286046998.4,N
1693476195.2,286046998.2,N
1693476215.1,286046998.5,N
1693476216.0,286046998.5,N
1693476235.8,286047000.6,N
1693476255.7,286047001.0,N
1693476275.5,286046998.6,N
1693476295.3,286046998.1,N
1693476315.2,286047001.2,N
1693476335.0,286046998.5,N
1693476335.9,286046998.5,N
1693476355.7,286046999.0,N
1693476375.6,286046999.1,N
1693476395.4,286046996.5,Y
1693476415.3,286047000.8,P
1693476435.1,286047001.1,N
1693476455.8,286047001.2,N
1693476475.7,286046998.9,N
1693476495.5,286046998.5,N
1693476515.4,286046998.7,N
1693476535.2,286046999.3,N
1693476555.0,286046999.3,N
1693476555.9,286046999.3,N
1693476575.8,286046998.8,N
1693476595.6,286046998.6,N
1693476615.4,286046998.7,N
1693476635.3,286046998.4,N
1693476655.1,286047000.9,N
1693476675.9,286047000.9,N
1693476695.7,286047000.0,N
1693476715.5,286046999.9,N
1693476735.4,286047000.6,N
1693476755.2,286047001.2,N
1693476775.0,286046999.4,N
1693476775.9,286046999.4,N
1693476795.8,286046997.1,Y
1693476815.6,286046997.1,P
1693476835.5,286046996.6,N
1693476855.3,286046998.5,N
1693476875.1,286047000.6,N
1693476895.9,286047002.8,N
1693476915.7,286047002.7,N
1693476935.5,286047000.4,N
1693476955.4,286047000.4,N
1693476975.2,286047000.4,N
1693476995.0,286046998.5,N
1693476996.0,286046998.5,N
1693477015.8,286047000.6,N
1693477035.6,286046999.8,N
1693477055.5,286047000.9,N
1693477075.3,286047000.5,N
1693477095.1,286046998.2,N
1693477115.9,286047000.9,N
1693477135.7,286046998.5,N
1693477155.5,286046998.5,N
1693477175.4,286046999.5,N
1693477195.2,286046996.5,N
1693477215.1,286046999.0,N
1693477216.0,286046999.0,N
1693477235.8,286046999.0,N
1693477255.6,286046998.6,N
1693477275.5,286047000.7,N
1693477295.3,286046998.1,N
1693477315.1,286046999.4,N
1693477335.9,286047001.2,N
1693477355.7,286046998.2,N
1693477375.6,286046998.1,N
1693477395.4,286047001.1,N
1693477415.2,286046999.2,N
1693477435.1,286046999.4,N
1693477436.0,286046999.4,N
1693477455.8,286046999.6,N
1693477475.7,286046999.4,N
1693477495.5,286046999.5,N
1693477515.3,286046997.2,N
1693477535.2,286046996.6,Y
1693477555.0,286046999.0,P
1693477555.9,286046999.0,P
1693477575.7,286046998.1,P
1693477595.6,286047001.0,N
1693477615.4,286046998.9,N
1693477635.3,286046996.9,Y
1693477655.1,286046998.9,P
1693477656.0,286046998.9,P
1693477675.8,286046998.6,P
1693477695.7,286046998.4,Y
1693477715.5,286047000.1,P
1693477735.3,286047000.1,N
1693477755.2,286047000.7,N
1693477775.0,286047000.0,N
1693477775.9,286047000.0,N
1693477795.8,286047000.9,N
1693477815.6,286047000.7,N
1693477835.4,286047000.8,N
1693477855.3,286047000.5,N
1693477875.1,286047002.7,Y
1693477895.9,286047000.2,P
1693477915.7,286047000.1,N
1693477935.5,286046999.9,N
1693477955.4,286047000.8,Y
1693477975.2,286047000.0,P
1693477995.1,286047002.7,P
1693477996.0,286047002.7,N
1693478015.8,286047002.8,N
1693478035.6,286047000.2,N
1693478055.5,286047000.7,N
1693478075.3,286047001.2,N
1693478095.1,286047000.6,N
1693478115.9,286047000.3,N
1693478135.7,286047002.6,N
1693478155.6,286047000.8,N
1693478175.4,286047002.8,N
1693478195.2,286047000.5,N
1693478215.1,286047000.7,N
1693478216.0,286047000.7,N
1693478235.8,286046999.9,N
1693478255.6,286047000.5,N
1693478275.5,286047000.6,N
1693478295.3,286047000.3,N
1693478315.2,286046998.1,N
1693478335.9,286047000.7,N
1693478355.7,286047000.6,N
1693478375.6,286046998.2,N
1693478395.4,286047000.4,N
1693478415.2,286047000.5,N
1693478435.1,286047000.5,N
1693478436.0,286047000.5,N
1693478455.8,286047000.1,N
1693478475.7,286047000.5,N
1693478495.5,286046998.2,N
1693478515.3,286046998.7,N
1693478535.2,286047000.8,N
1693478555.0,286046998.3,N
1693478555.9,286046998.3,N
1693478575.7,286046996.8,N
1693478595.6,286046997.0,N
1693478615.4,286046996.6,N
1693478635.3,286046999.3,N
1693478655.1,286046997.4,N
1693478675.8,286046997.6,N
1693478695.7,286046994.9,Y
1693478715.5,286046997.8,P
1693478735.4,286046997.3,P
1693478755.2,286046997.4,N
1693478775.0,286046995.3,Y
1693478775.9,286046995.3,P
1693478795.8,286046996.5,N
1693478815.6,286046999.2,N
1693478835.4,286046999.3,N
1693478855.3,286046998.7,N
1693478875.1,286046998.7,N
1693478895.9,286047001.2,N
1693478915.7,286047000.3,N
1693478935.5,286047002.6,N
1693478955.4,286047002.8,N
1693478975.2,286047002.7,N
1693478995.0,286046999.7,N
1693478996.0,286046999.7,N
1693479015.8,286047002.6,N
1693479035.6,286047002.8,N
1693479055.5,286047001.9,N
1693479075.3,286047001.8,N
1693479095.1,286047002.6,N
1693479115.9,286047001.3,N
1693479135.7,286047001.5,N
1693479155.5,286047001.8,N
1693479175.4,286047001.7,N
1693479195.2,286047002.3,N
1693479215.1,286047001.8,N
1693479216.0,286047001.8,N
1693479235.8,286047001.7,N
1693479255.6,286047002.6,N
1693479275.5,286047001.7,N
1693479295.3,286047003.8,N
1693479315.1,286047001.8,N
1693479335.9,286047004.4,N
1693479355.7,286047001.7,N
1693479375.6,286047001.7,N
1693479395.4,286047004.3,Y
1693479415.2,286047001.8,P
1693479435.1,286047001.5,P
1693479436.0,286047001.5,P
1693479455.8,286047004.3,Y
1693479475.7,286046999.7,P
1693479495.5,286046999.7,N
1693479515.3,286047001.7,N
1693479535.2,286047002.6,N
1693479555.9,286047002.8,N
1693479575.7,286047002.7,N
1693479595.6,286047000.4,N
